"2009-08-26 00:00:00",1183969,0.632,64.17,11.61,0.145,17.76,107.8643,19.41,20.44,43.66,0,110.8,13.22,20.23,26.2
"2009-08-26 00:00:30",1183970,0.845,59.51,12.88,0.256,17.78,107.864,19.41,20.46,43.81,0,110.8,13.22,20.23,21.5
"2009-08-26 00:01:00",1183971,1.243,52.84,7.152,0.177,17.69,107.8656,19.41,20.47,44.27,0,110.8,13.22,20.23,14.8
"2009-08-26 00:01:30",1183972,1.53,48.31,2.827,0.155,17.65,107.873,19.43,20.47,45.05,0,110.8,13.22,20.25,10.3
"2009-08-26 00:02:00",1183973,1.494,52.96,3.127,0.098,17.74,107.8764,19.44,20.48,45.21,0,110.8,13.23,20.26,15.0
"2009-08-26 00:02:30",1183974,1.485,53.62,1.895,0.114,17.84,107.8857,19.47,20.49,45.05,0,110.8,13.23,20.29,15.6
"2009-08-26 00:03:00",1183975,1.555,49.61,2.242,0.068,17.88,107.8888,19.47,20.51,44.76,0,110.8,13.23,20.29,11.6
"2009-08-26 00:03:30",1183976,1.317,40.72,4.766,0.121,18.01,107.8921,19.48,20.5,44.52,0,110.8,13.23,20.30,2.7
"2009-08-26 00:04:00",1183977,1.224,39.44,1.511,0.045,18.02,107.8944,19.49,20.53,44.37,0,110.8,13.23,20.31,1.4
"2009-08-26 00:04:30",1183978,1.048,35.04,4.548,0.102,18.06,107.895,19.49,20.52,44.28,0,110.8,13.23,20.31,357.0
"2009-08-26 00:05:00",1183979,0.958,38.02,1.792,0.06,17.99,107.895,19.49,20.53,44.08,0,110.8,13.23,20.31,0.0
"2009-08-26 00:05:30",1183980,0.629,39.49,6.323,0.078,18.17,107.8958,19.49,20.51,44.08,0,110.8,13.23,20.31,1.5
"2009-08-26 00:06:00",1183981,0.562,47.36,6.863,0.085,18.13,107.9007,19.5,20.52,43.96,0,110.8,13.23,20.32,9.4
"2009-08-26 00:06:30",1183982,0.632,45.48,7.065,0.108,18.14,107.8935,19.49,20.53,43.87,0,110.8,13.23,20.31,7.5
"2009-08-26 00:07:00",1183983,0.428,43.65,7.44,0.097,18.14,107.896,19.49,20.53,43.78,0,110.8,13.23,20.31,5.7
"2009-08-26 00:07:30",1183984,0.166,65.34,13.43,0.044,18.12,107.8978,19.5,20.52,43.74,0,110.8,13.23,20.32,27.3
"2009-08-26 00:08:00",1183985,0.259,83.9,6.544,0.067,18.26,107.8949,19.49,20.53,43.6,0,110.8,13.23,20.31,45.9
"2009-08-26 00:08:30",1183986,0.359,78.45,2.967,0.056,18.29,107.8991,19.5,20.52,43.32,0,110.8,13.23,20.32,40.4
"2009-08-26 00:09:00",1183987,0.313,86.4,3.238,0.023,18.3,107.8937,19.49,20.53,43.29,0,110.8,13.23,20.31,48.4
"2009-08-26 00:09:30",1183988,0.282,100.1,11.44,0.062,18.2,107.8952,19.49,20.54,43.22,0,110.8,13.23,20.31,62.1
"2009-08-26 00:10:00",1183989,0.416,110.5,7.455,0.121,18.07,107.8944,19.49,20.52,43.15,0,110.8,13.23,20.31,72.5
"2009-08-26 00:10:30",1183990,0.36,127.9,8.64,0.075,18.07,107.8949,19.49,20.54,42.99,0,110.8,13.23,20.31,89.9
"2009-08-26 00:11:00",1183991,0.517,130.2,3.699,0.118,18.2,107.893,19.49,20.53,42.97,0,110.8,13.23,20.31,92.2
"2009-08-26 00:11:30",1183992,0.685,123.7,9.33,0.061,18.17,107.8939,19.49,20.53,42.83,0,110.8,13.23,20.31,85.7
"2009-08-26 00:12:00",1183993,0.885,119.4,6.654,0.063,18.15,107.8953,19.49,20.53,42.88,0,110.8,13.23,20.31,81.4
"2009-08-26 00:12:30",1183994,0.91,125.1,3.275,0.093,18.14,107.8948,19.49,20.53,42.93,0,110.8,13.23,20.31,87.1
"2009-08-26 00:13:00",1183995,0.942,125.3,3.586,0.064,18.1,107.8958,19.49,20.51,42.94,0,110.8,13.23,20.31,87.3
"2009-08-26 00:13:30",1183996,1.051,125.4,4.276,0.111,18.07,107.896,19.49,20.52,42.92,0,110.8,13.23,20.31,87.4
"2009-08-26 00:14:00",1183997,1.172,129.9,2.458,0.046,18.07,107.8969,19.5,20.52,42.88,0,110.8,13.23,20.32,91.9
"2009-08-26 00:14:30",1183998,1.374,129,2.01,0.074,18.05,107.896,19.49,20.53,42.94,0,110.8,13.23,20.31,91.0
"2009-08-26 00:15:00",1183999,1.433,131.7,2.786,0.08,18.13,107.8964,19.49,20.53,43.04,0,110.8,13.23,20.31,93.7
"2009-08-26 00:15:30",1184000,1.649,130.2,1.846,0.062,18.08,107.8961,19.49,20.54,43.14,0,110.8,13.22,20.31,92.2
"2009-08-26 00:16:00",1184001,1.565,129.8,1.505,0.1,18.16,107.8973,19.5,20.52,43.15,0,110.8,13.23,20.32,91.8
"2009-08-26 00:16:30",1184002,1.82,131.1,1.694,0.063,18.07,107.8931,19.49,20.53,43.05,0,110.8,13.23,20.31,93.1
"2009-08-26 00:17:00",1184003,1.651,134.3,3.622,0.08,18.12,107.8911,19.48,20.52,43,0,110.8,13.23,20.30,96.3
"2009-08-26 00:17:30",1184004,1.756,139.4,2.396,0.059,18.17,107.89,19.48,20.53,43.1,0,110.8,13.23,20.30,101.4
"2009-08-26 00:18:00",1184005,1.937,145.4,1.266,0.148,18.25,107.8906,19.48,20.52,42.99,0,110.8,13.23,20.30,107.4
"2009-08-26 00:18:30",1184006,2.195,147.1,1.419,0.096,18.1,107.8904,19.48,20.51,42.76,0,110.8,13.23,20.30,109.1
"2009-08-26 00:19:00",1184007,2.541,148.8,2.343,0.083,18.23,107.8904,19.48,20.51,42.69,0,110.8,13.23,20.30,110.8
"2009-08-26 00:19:30",1184008,2.815,149.8,2.369,0.116,18.13,107.8904,19.48,20.51,42.76,0,110.8,13.23,20.30,111.8
"2009-08-26 00:20:00",1184009,2.902,149.5,1.606,0.093,18.18,107.8895,19.48,20.49,42.86,0,110.8,13.23,20.30,111.5
"2009-08-26 00:20:30",1184010,2.949,145.7,0.75,0.057,18.21,107.8814,19.46,20.49,42.92,0,110.8,13.23,20.28,107.7
"2009-08-26 00:21:00",1184011,3.046,151.2,4.007,0.131,18.19,107.8676,19.42,20.46,42.93,0,110.8,13.23,20.24,113.2
"2009-08-26 00:21:30",1184012,3.176,161,1.297,0.096,18.07,107.8575,19.39,20.45,42.99,0,110.8,13.23,20.21,123.0
"2009-08-26 00:22:00",1184013,3.092,162.3,2.374,0.143,18.22,107.8581,19.4,20.45,43,0,110.8,13.23,20.22,124.3
"2009-08-26 00:22:30",1184014,2.844,162.8,2.931,0.139,18.34,107.8602,19.4,20.45,43.04,0,110.8,13.23,20.22,124.8
"2009-08-26 00:23:00",1184015,2.869,168.2,2.429,0.128,18.35,107.8556,19.39,20.42,43.09,0,110.8,13.23,20.21,130.2
"2009-08-26 00:23:30",1184016,3.08,170.2,1.996,0.211,18.32,107.8341,19.33,20.41,43.16,0,110.8,13.23,20.15,132.2
"2009-08-26 00:24:00",1184017,3.215,174.2,0.779,0.119,18.25,107.8307,19.33,20.39,43.15,0,110.8,13.23,20.14,136.2
"2009-08-26 00:24:30",1184018,3.687,176.5,2.04,0.318,18.26,107.8316,19.33,20.38,43.43,0,110.8,13.23,20.15,138.5
"2009-08-26 00:25:00",1184019,4.206,183.4,3.604,0.183,18.24,107.8313,19.33,20.37,44.06,0,110.8,13.24,20.15,145.4
"2009-08-26 00:25:30",1184020,4.059,187.8,2.327,0.15,18.27,107.8232,19.31,20.36,44.2,0,110.8,13.24,20.13,149.8
"2009-08-26 00:26:00",1184021,4.332,183.9,1.5,0.185,18.26,107.8058,19.26,20.35,44.54,0,110.8,13.24,20.08,145.9
"2009-08-26 00:26:30",1184022,4.5,184.4,1.809,0.19,18.26,107.7988,19.24,20.32,44.95,0,110.8,13.24,20.06,146.4
"2009-08-26 00:27:00",1184023,4.435,186.9,1.907,0.118,18.27,107.7985,19.24,20.31,44.96,0,110.8,13.24,20.06,148.9
"2009-08-26 00:27:30",1184024,4.305,185.2,2.63,0.21,18.29,107.7988,19.24,20.3,45.34,0,110.8,13.24,20.06,147.2
"2009-08-26 00:28:00",1184025,4.204,183.5,4.679,0.173,18.33,107.7977,19.24,20.27,44.96,0,110.8,13.24,20.06,145.5
"2009-08-26 00:28:30",1184026,4.293,181.1,4.644,0.219,18.18,107.7827,19.2,20.27,46.35,0,110.8,13.24,20.02,143.1
"2009-08-26 00:29:00",1184027,4.822,189.8,3.07,0.305,18.26,107.7678,19.16,20.26,46.81,0,110.8,13.24,19.98,151.8
"2009-08-26 00:29:30",1184028,4.669,186.1,3.829,0.41,18.26,107.765,19.16,20.25,46.38,0,110.8,13.24,19.98,148.1
"2009-08-26 00:30:00",1184029,4.436,178.1,2.632,0.589,18.2,107.765,19.16,20.22,46.24,0,110.8,13.24,19.98,140.1
"2009-08-26 00:30:30",1184030,4.971,175.9,1.648,0.16,18.2,107.7555,19.13,20.2,46.61,0,110.8,13.23,19.95,137.9
"2009-08-26 00:31:00",1184031,4.966,181.1,5.958,0.37,18.24,107.7318,19.07,20.2,46.95,0,110.8,13.23,19.89,143.1
"2009-08-26 00:31:30",1184032,5.05,180,1.574,0.114,18.17,107.7313,19.07,20.18,47.09,0,110.8,13.23,19.89,142.0
"2009-08-26 00:32:00",1184033,4.76,178.8,1.434,0.139,18.13,107.7248,19.05,20.14,47.73,0,110.8,13.23,19.87,140.8
"2009-08-26 00:32:30",1184034,4.47,181.8,1.63,0.252,18.18,107.7012,18.99,20.12,47.79,0,110.8,13.23,19.81,143.8
"2009-08-26 00:33:00",1184035,4.195,183.2,2.688,0.227,18.2,107.6975,18.98,20.11,47.95,0,110.8,13.23,19.80,145.2
"2009-08-26 00:33:30",1184036,4.781,182.9,1.075,0.109,18.23,107.6975,18.98,20.09,47.98,0,110.8,13.23,19.80,144.9
"2009-08-26 00:34:00",1184037,4.711,186.1,1.629,0.11,18.22,107.6843,18.95,20.07,48.22,0,110.8,13.23,19.77,148.1
"2009-08-26 00:34:30",1184038,4.49,188.7,2.195,0.159,18.22,107.6688,18.91,20.05,48.58,0,110.8,13.23,19.73,150.7
"2009-08-26 00:35:00",1184039,4.449,195.7,1.63,0.146,18.25,107.6643,18.9,20.01,48.28,0,110.8,13.23,19.72,157.7
"2009-08-26 00:35:30",1184040,4.51,194.5,2.581,0.168,18.22,107.6637,18.9,20.02,48,0,110.8,13.24,19.71,156.5
"2009-08-26 00:36:00",1184041,4.499,192.9,1.178,0.152,18.31,107.6637,18.9,19.99,48.13,0,110.8,13.24,19.71,154.9
"2009-08-26 00:36:30",1184042,4.485,190.6,1.002,0.11,18.3,107.6612,18.89,19.98,48.08,0,110.8,13.24,19.71,152.6
"2009-08-26 00:37:00",1184043,4.638,192.4,3.133,0.132,18.24,107.6415,18.84,19.95,47.97,0,110.8,13.24,19.66,154.4
"2009-08-26 00:37:30",1184044,4.416,188.5,2.335,0.133,18.23,107.6308,18.81,19.95,48.38,0,110.8,13.24,19.63,150.5
"2009-08-26 00:38:00",1184045,4.401,198.9,4.794,0.157,18.27,107.63,18.81,19.93,48.37,0,110.8,13.24,19.63,160.9
"2009-08-26 00:38:30",1184046,4.578,200.2,4.665,0.186,18.19,107.63,18.81,19.92,48.34,0,110.8,13.24,19.63,162.2
"2009-08-26 00:39:00",1184047,4.534,193.8,1.888,0.145,18.26,107.6297,18.81,19.9,48.37,0,110.8,13.24,19.63,155.8
"2009-08-26 00:39:30",1184048,4.522,196,2.056,0.24,18.22,107.6213,18.79,19.87,48.52,0,110.8,13.25,19.61,158.0
"2009-08-26 00:40:00",1184049,5.124,199,1.708,0.12,18.19,107.6065,18.75,19.87,48.74,0,110.8,13.25,19.57,161.0
"2009-08-26 00:40:30",1184050,4.936,195.4,2.308,0.131,18.15,107.5986,18.73,19.85,49.71,0,110.8,13.25,19.55,157.4
"2009-08-26 00:41:00",1184051,4.548,199.8,1.711,0.102,18.17,107.6005,18.73,19.84,49.75,0,110.8,13.25,19.55,161.8
"2009-08-26 00:41:30",1184052,4.331,201.5,2.009,0.116,18.16,107.6017,18.74,19.82,48.91,0,110.8,13.25,19.56,163.5
"2009-08-26 00:42:00",1184053,4.537,203.3,1.658,0.152,18.17,107.6003,18.73,19.79,48.52,0,110.8,13.25,19.55,165.3
"2009-08-26 00:42:30",1184054,4.581,208.9,1.747,0.248,18.11,107.591,18.71,19.8,48.66,0,110.8,13.25,19.53,170.9
"2009-08-26 00:43:00",1184055,4.567,204.6,2.158,0.093,18.1,107.5754,18.67,19.78,49.5,0,110.8,13.25,19.49,166.6
"2009-08-26 00:43:30",1184056,4.275,201.9,1.84,0.202,18,107.5724,18.66,19.78,50.58,0,110.7,13.25,19.48,163.9
"2009-08-26 00:44:00",1184057,4.132,206.9,3.421,0.242,18.02,107.5755,18.67,19.76,50.79,0,110.7,13.25,19.49,168.9
"2009-08-26 00:44:30",1184058,4.533,208.9,3.597,0.172,18.14,107.5767,18.67,19.73,50.08,0,110.7,13.25,19.49,170.9
"2009-08-26 00:45:00",1184059,4.471,209.3,2.408,0.158,18.16,107.5732,18.66,19.72,49.21,0,110.7,13.25,19.48,171.3
"2009-08-26 00:45:30",1184060,4.914,212.1,2.714,0.199,18.07,107.5712,18.66,19.72,48.97,0,110.7,13.25,19.48,174.1
"2009-08-26 00:46:00",1184061,4.891,210.9,3.531,0.201,18.13,107.5554,18.62,19.7,49.04,0,110.7,13.25,19.44,172.9
"2009-08-26 00:46:30",1184062,4.692,214.1,3.417,0.203,18.13,107.5511,18.61,19.68,48.39,0,110.7,13.25,19.43,176.1
"2009-08-26 00:47:00",1184063,5.531,209.6,1.76,0.194,18.07,107.5547,18.62,19.65,48.05,0,110.7,13.25,19.43,171.6
"2009-08-26 00:47:30",1184064,5.739,206.4,1.383,0.173,18.14,107.5557,18.62,19.66,47.92,0,110.7,13.25,19.44,168.4
"2009-08-26 00:48:00",1184065,5.784,210,1.216,0.13,18.11,107.5422,18.59,19.63,47.61,0,110.7,13.25,19.40,172.0
"2009-08-26 00:48:30",1184066,5.52,211.4,1.336,0.292,18.05,107.5323,18.56,19.61,47.38,0,110.7,13.25,19.38,173.4
"2009-08-26 00:49:00",1184067,5.35,211,1.389,0.151,18.15,107.5285,18.55,19.61,47.66,0,110.7,13.25,19.37,173.0
"2009-08-26 00:49:30",1184068,4.813,206.7,2.566,0.225,18.28,107.5306,18.56,19.59,47.74,0,110.7,13.25,19.37,168.7
"2009-08-26 00:50:00",1184069,5.006,205.1,3.184,0.137,18.1,107.5309,18.56,19.58,48.1,0,110.7,13.25,19.37,167.1
"2009-08-26 00:50:30",1184070,5.279,207.1,1.561,0.184,18.13,107.5297,18.55,19.57,48.05,0,110.7,13.25,19.37,169.1
"2009-08-26 00:51:00",1184071,5.123,208.4,2.47,0.212,18.12,107.5298,18.55,19.56,47.65,0,110.7,13.25,19.37,170.4
"2009-08-26 00:51:30",1184072,5.27,207.9,2.52,0.247,18.16,107.5163,18.52,19.55,47.13,0,110.7,13.25,19.34,169.9
"2009-08-26 00:52:00",1184073,5.208,206.7,0.897,0.073,18.22,107.502,18.48,19.54,47.18,0,110.7,13.25,19.30,168.7
"2009-08-26 00:52:30",1184074,4.985,207.9,1.54,0.059,17.98,107.4975,18.47,19.52,47.07,0,110.7,13.25,19.29,169.9
"2009-08-26 00:53:00",1184075,5.101,210.4,1.767,0.103,18.03,107.4975,18.47,19.51,45.97,0,110.7,13.26,19.29,172.4
"2009-08-26 00:53:30",1184076,5.369,211.9,1.687,0.083,18.17,107.4975,18.47,19.5,44.59,0,110.7,13.26,19.29,173.9
"2009-08-26 00:54:00",1184077,5.438,210.7,2.947,0.111,18.18,107.4975,18.47,19.49,44.4,0,110.7,13.26,19.29,172.7
"2009-08-26 00:54:30",1184078,5.395,212.8,0.906,0.104,18.23,107.4975,18.47,19.48,44.64,0,110.7,13.26,19.29,174.8
"2009-08-26 00:55:00",1184079,5.508,212,1.704,0.115,18.28,107.4975,18.47,19.47,44.87,0,110.7,13.26,19.29,174.0
"2009-08-26 00:55:30",1184080,5.101,210.3,1.566,0.121,18.12,107.4949,18.46,19.47,45.23,0,110.7,13.26,19.28,172.3
"2009-08-26 00:56:00",1184081,5.234,212,1.448,0.08,18.12,107.4893,18.45,19.47,45.76,0,110.7,13.26,19.27,174.0
"2009-08-26 00:56:30",1184082,5.225,210.3,2.381,0.251,18.23,107.4834,18.43,19.45,46.52,0,110.7,13.26,19.25,172.3
"2009-08-26 00:57:00",1184083,5.493,210,1.418,0.076,18.19,107.473,18.41,19.45,44.91,0,110.7,13.26,19.22,172.0
"2009-08-26 00:57:30",1184084,5.492,212.4,0.789,0.08,18.19,107.4668,18.39,19.45,45.73,0,110.7,13.26,19.21,174.4
"2009-08-26 00:58:00",1184085,5.464,213.2,1.28,0.243,18.08,107.464,18.38,19.44,47.14,0,110.7,13.26,19.20,175.2
"2009-08-26 00:58:30",1184086,5.534,212.5,3.666,0.176,18.03,107.4637,18.38,19.45,47.19,0,110.7,13.26,19.20,174.5
"2009-08-26 00:59:00",1184087,5.31,209.5,2.22,0.145,18.13,107.4637,18.38,19.44,45.78,0,110.7,13.26,19.20,171.5
"2009-08-26 00:59:30",1184088,4.751,204.1,1.216,0.215,18.26,107.4637,18.38,19.44,45.88,0,110.7,13.26,19.20,166.1
"2009-08-26 01:00:00",1184089,4.745,204.7,0.886,0.08,18.1,107.4637,18.38,19.43,46.01,0,110.7,13.26,19.20,166.7
"2009-08-26 01:00:30",1184090,5.221,207.3,2.46,0.412,18.19,107.4637,18.38,19.4,44.66,0,110.7,13.26,19.20,169.3
"2009-08-26 01:01:00",1184091,5.666,207.7,0.48,0.083,18.11,107.4637,18.38,19.43,42.34,0,110.7,13.26,19.20,169.7
"2009-08-26 01:01:30",1184092,5.389,208.1,1.082,0.103,18.1,107.4637,18.38,19.4,42.61,0,110.7,13.26,19.20,170.1
"2009-08-26 01:02:00",1184093,5.646,209.2,0.856,0.113,18.07,107.4637,18.38,19.42,43.45,0,110.7,13.26,19.20,171.2
"2009-08-26 01:02:30",1184094,5.706,210.5,1.955,0.148,18.13,107.464,18.38,19.41,43.4,0,110.7,13.26,19.20,172.5
"2009-08-26 01:03:00",1184095,5.528,211.7,1.47,0.136,18.23,107.4637,18.38,19.4,43.54,0,110.7,13.26,19.20,173.7
"2009-08-26 01:03:30",1184096,5.542,214,2.397,0.151,18.36,107.4643,18.39,19.4,43.79,0,110.7,13.26,19.20,176.0
"2009-08-26 01:04:00",1184097,5.705,214.2,0.715,0.109,18.25,107.4643,18.39,19.4,42.69,0,110.7,13.26,19.20,176.2
"2009-08-26 01:04:30",1184098,5.931,212,1.345,0.073,18.17,107.4643,18.39,19.41,42.9,0,110.7,13.26,19.20,174.0
"2009-08-26 01:05:00",1184099,5.844,209.8,0.474,0.08,18.13,107.4649,18.39,19.39,45.15,0,110.7,13.26,19.20,171.8
"2009-08-26 01:05:30",1184100,5.939,211.3,0.872,0.121,18.24,107.4661,18.39,19.41,44.71,0,110.7,13.26,19.21,173.3
"2009-08-26 01:06:00",1184101,5.919,210.8,0.708,0.086,18.26,107.4649,18.39,19.4,44.05,0,110.7,13.26,19.20,172.8
"2009-08-26 01:06:30",1184102,5.691,212.9,1.098,0.072,18.2,107.4665,18.39,19.39,43.47,0,110.7,13.26,19.21,174.9
"2009-08-26 01:07:00",1184103,5.847,212.3,0.849,0.151,18.1,107.4678,18.39,19.41,43.86,0,110.7,13.26,19.21,174.3
"2009-08-26 01:07:30",1184104,5.95,211.5,0.49,0.049,18.23,107.4732,18.41,19.4,44.37,0,110.7,13.26,19.22,173.5
"2009-08-26 01:08:00",1184105,5.899,211.3,0.453,0.059,18.21,107.4765,18.42,19.4,43.76,0,110.7,13.26,19.23,173.3
"2009-08-26 01:08:30",1184106,5.875,212.6,0.712,0.04,18.05,107.4736,18.41,19.41,42.91,0,110.7,13.26,19.23,174.6
"2009-08-26 01:09:00",1184107,5.745,212.5,1.031,0.089,18.18,107.4816,18.43,19.4,42.39,0,110.7,13.26,19.25,174.5
"2009-08-26 01:09:30",1184108,5.816,211.2,0.332,0.057,18.03,107.4823,18.43,19.4,42.22,0,110.7,13.26,19.25,173.2
"2009-08-26 01:10:00",1184109,5.904,212.1,0.327,0.058,18.17,107.4833,18.43,19.39,42.29,0,110.7,13.27,19.25,174.1
"2009-08-26 01:10:30",1184110,5.911,213.8,0.571,0.08,18.16,107.4813,18.43,19.39,41.81,0,110.7,13.27,19.25,175.8
"2009-08-26 01:11:00",1184111,5.725,214.5,0.563,0.029,18.42,107.4792,18.42,19.4,41.67,0,110.7,13.27,19.24,176.5
"2009-08-26 01:11:30",1184112,5.699,215.1,0.02,0.032,18.55,107.4852,18.44,19.4,41.57,0,110.7,13.27,19.26,177.1
"2009-08-26 01:12:00",1184113,5.65,215.9,1.264,0.055,18.41,107.4878,18.45,19.4,41.45,0,110.7,13.27,19.26,177.9
"2009-08-26 01:12:30",1184114,5.56,216.9,1.225,0.03,18.27,107.4895,18.45,19.41,41.5,0,110.7,13.27,19.27,178.9
"2009-08-26 01:13:00",1184115,5.668,215.7,0.519,0.091,18.41,107.4901,18.45,19.41,41.42,0,110.7,13.27,19.27,177.7
"2009-08-26 01:13:30",1184116,5.85,215.6,0.811,0.07,18.14,107.4936,18.46,19.4,41.17,0,110.7,13.27,19.28,177.6
"2009-08-26 01:14:00",1184117,5.697,218.9,1.124,0.051,18.09,107.4915,18.46,19.41,41.36,0,110.7,13.27,19.27,180.9
"2009-08-26 01:14:30",1184118,5.55,219.5,0.746,0.07,17.95,107.493,18.46,19.42,41.36,0,110.7,13.27,19.28,181.5
"2009-08-26 01:15:00",1184119,5.418,219.1,0.995,0.092,18.17,107.4924,18.46,19.42,41.26,0,110.7,13.27,19.27,181.1
"2009-08-26 01:15:30",1184120,5.619,220.1,0.475,0.064,18.02,107.4924,18.46,19.41,41.13,0,110.7,13.27,19.27,182.1
"2009-08-26 01:16:00",1184121,5.57,220.2,0.474,0.051,18.08,107.4939,18.46,19.43,41.13,0,110.7,13.27,19.28,182.2
"2009-08-26 01:16:30",1184122,5.642,221.2,0.457,0.074,18.19,107.4964,18.47,19.43,41.09,0,110.7,13.27,19.28,183.2
"2009-08-26 01:17:00",1184123,5.771,220,1.416,0.15,17.96,107.4967,18.47,19.43,42.59,0,110.7,13.27,19.29,182.0
"2009-08-26 01:17:30",1184124,5.633,219.9,0.565,0.054,17.89,107.4976,18.47,19.44,44.42,0,110.7,13.27,19.29,181.9
"2009-08-26 01:18:00",1184125,5.704,220.7,0.578,0.06,18.25,107.4994,18.48,19.45,41.92,0,110.7,13.27,19.29,182.7
"2009-08-26 01:18:30",1184126,5.877,221.8,0.451,0.024,18.1,107.4994,18.48,19.45,41.19,0,110.7,13.27,19.29,183.8
"2009-08-26 01:19:00",1184127,5.76,221.7,0.616,0.082,18.22,107.5,18.48,19.46,41.36,0,110.7,13.27,19.29,183.7
"2009-08-26 01:19:30",1184128,5.636,223.1,0.972,0.062,18.34,107.5011,18.48,19.46,41.26,0,110.7,13.27,19.30,185.1
"2009-08-26 01:20:00",1184129,5.751,223.6,0.532,0.059,18.15,107.5039,18.49,19.46,41.18,0,110.7,13.27,19.30,185.6
"2009-08-26 01:20:30",1184130,5.941,224.5,1.878,0.07,17.91,107.509,18.5,19.47,43.01,0,110.7,13.27,19.32,186.5
"2009-08-26 01:21:00",1184131,5.91,227.8,1.697,0.22,17.96,107.516,18.52,19.49,46.5,0,110.7,13.26,19.33,189.8
"2009-08-26 01:21:30",1184132,5.58,227.8,2.171,0.133,17.99,107.518,18.52,19.5,47.01,0,110.7,13.26,19.34,189.8
"2009-08-26 01:22:00",1184133,5.537,228.5,1.916,0.134,18.01,107.5222,18.53,19.5,47.5,0,110.7,13.26,19.35,190.5
"2009-08-26 01:22:30",1184134,5.494,231.1,2.689,0.408,18.1,107.5211,18.53,19.5,46.7,0,110.7,13.26,19.35,193.1
"2009-08-26 01:23:00",1184135,5.142,230.4,2.64,0.218,18.08,107.5135,18.51,19.5,46.39,0,110.7,13.26,19.33,192.4
"2009-08-26 01:23:30",1184136,4.722,233.2,2.651,0.29,18.08,107.5101,18.5,19.5,47.78,0,110.7,13.26,19.32,195.2
"2009-08-26 01:24:00",1184137,4.909,229.8,5.457,0.297,18.12,107.5034,18.49,19.49,47.27,0,110.7,13.26,19.30,191.8
"2009-08-26 01:24:30",1184138,3.891,232,3.481,0.263,18.02,107.5003,18.48,19.49,48.59,0,110.7,13.26,19.29,194.0
"2009-08-26 01:25:00",1184139,4.867,227.6,3.563,0.564,17.99,107.5,18.48,19.47,48.97,0,110.7,13.26,19.29,189.6
"2009-08-26 01:25:30",1184140,5.508,227.8,3.547,0.31,18.26,107.5,18.48,19.48,47.32,0,110.7,13.26,19.29,189.8
"2009-08-26 01:26:00",1184141,5.884,224.3,1.9,0.118,18.28,107.5,18.48,19.47,43.48,0,110.7,13.26,19.29,186.3
"2009-08-26 01:26:30",1184142,4.964,225,2.549,0.185,17.94,107.5,18.48,19.46,46.72,0,110.7,13.27,19.29,187.0
"2009-08-26 01:27:00",1184143,5.488,224.2,0.912,0.304,18.26,107.5,18.48,19.46,46.15,0,110.7,13.27,19.29,186.2
"2009-08-26 01:27:30",1184144,5.854,226.5,1.545,0.145,18.4,107.4997,18.48,19.45,42.48,0,110.7,13.27,19.29,188.5
"2009-08-26 01:28:00",1184145,5.93,227.2,1.513,0.231,18.08,107.4896,18.45,19.43,44.1,0,110.7,13.27,19.27,189.2
"2009-08-26 01:28:30",1184146,5.897,226.5,1.787,0.126,18.15,107.4752,18.41,19.42,44.36,0,110.7,13.27,19.23,188.5
"2009-08-26 01:29:00",1184147,6.064,228.2,0.321,0.072,18.22,107.4665,18.39,19.41,42.65,0,110.7,13.27,19.21,190.2
"2009-08-26 01:29:30",1184148,6.135,227.4,0.46,0.056,18.38,107.4662,18.39,19.41,42.12,0,110.7,13.27,19.21,189.4
"2009-08-26 01:30:00",1184149,6.206,227.4,0.462,0.094,18.4,107.4662,18.39,19.39,42.16,0,110.7,13.27,19.21,189.4
"2009-08-26 01:30:30",1184150,5.999,228.1,0.269,0.087,18.21,107.4662,18.39,19.39,42.24,0,110.7,13.27,19.21,190.1
"2009-08-26 01:31:00",1184151,5.91,228.7,0.59,0.051,18.08,107.4662,18.39,19.38,42.59,0,110.7,13.27,19.21,190.7
"2009-08-26 01:31:30",1184152,5.892,231.1,1.207,0.039,18.36,107.4662,18.39,19.38,43.44,0,110.7,13.27,19.21,193.1
"2009-08-26 01:32:00",1184153,5.757,232.2,0.424,0.13,18.34,107.4662,18.39,19.38,44.52,0,110.7,13.27,19.21,194.2
"2009-08-26 01:32:30",1184154,5.53,234,0.725,0.063,18.24,107.4662,18.39,19.37,45.54,0,110.6,13.27,19.21,196.0
"2009-08-26 01:33:00",1184155,5.283,234.8,0.799,0.1,18.35,107.4662,18.39,19.38,46.06,0,110.6,13.27,19.21,196.8
"2009-08-26 01:33:30",1184156,5.251,237.8,1.346,0.046,18.2,107.4662,18.39,19.39,46.35,0,110.6,13.27,19.21,199.8
"2009-08-26 01:34:00",1184157,5.198,237.2,0.802,0.051,18.22,107.4662,18.39,19.37,46.57,0,110.6,13.27,19.21,199.2
"2009-08-26 01:34:30",1184158,5.004,235.2,1.223,0.081,18.21,107.4662,18.39,19.39,46.76,0,110.6,13.27,19.21,197.2
"2009-08-26 01:35:00",1184159,4.978,234.6,1.417,0.059,18.17,107.4662,18.39,19.37,46.83,0,110.6,13.27,19.21,196.6
"2009-08-26 01:35:30",1184160,4.941,235.2,0.84,0.052,18.03,107.4662,18.39,19.37,47.16,0,110.6,13.27,19.21,197.2
"2009-08-26 01:36:00",1184161,4.814,236.6,1.042,0.13,18.26,107.4662,18.39,19.38,46.83,0,110.6,13.27,19.21,198.6
"2009-08-26 01:36:30",1184162,4.601,237.6,2.031,0.094,18.16,107.4662,18.39,19.39,46.85,0,110.6,13.27,19.21,199.6
"2009-08-26 01:37:00",1184163,4.45,240.2,1.013,0.017,18.18,107.4662,18.39,19.37,46.22,0,110.6,13.27,19.21,202.2
"2009-08-26 01:37:30",1184164,4.385,238.7,0.689,0.056,18.08,107.4662,18.39,19.38,45.95,0,110.6,13.27,19.21,200.7
"2009-08-26 01:38:00",1184165,4.307,237.7,0.856,0.074,18.08,107.4662,18.39,19.38,46.68,0,110.6,13.27,19.21,199.7
"2009-08-26 01:38:30",1184166,4.536,236.8,1.249,0.107,18.11,107.4662,18.39,19.38,46.88,0,110.6,13.27,19.21,198.8
"2009-08-26 01:39:00",1184167,4.149,239.9,1.042,0.188,18.14,107.4659,18.39,19.39,47.38,0,110.6,13.27,19.21,201.9
"2009-08-26 01:39:30",1184168,3.902,238.9,1.06,0.097,18.28,107.4657,18.39,19.37,47.49,0,110.6,13.27,19.21,200.9
"2009-08-26 01:40:00",1184169,3.644,239.2,0.482,0.075,18.41,107.4617,18.38,19.37,47.04,0,110.6,13.27,19.20,201.2
"2009-08-26 01:40:30",1184170,3.676,239.4,0.608,0.086,18.4,107.4552,18.36,19.36,46.16,0,110.6,13.27,19.18,201.4
"2009-08-26 01:41:00",1184171,3.711,239.2,0.456,0.035,18.47,107.4457,18.34,19.37,45.43,0,110.6,13.27,19.15,201.2
"2009-08-26 01:41:30",1184172,3.677,239.3,0.43,0.033,18.38,107.444,18.33,19.36,45.71,0,110.6,13.27,19.15,201.3
"2009-08-26 01:42:00",1184173,3.791,237.2,1.004,0.07,18.24,107.4395,18.32,19.37,46.03,0,110.6,13.27,19.14,199.2
"2009-08-26 01:42:30",1184174,3.94,235.3,1.099,0.103,17.95,107.4369,18.32,19.37,46.3,0,110.6,13.27,19.13,197.3
"2009-08-26 01:43:00",1184175,4.07,237.4,2.022,0.109,18.1,107.4333,18.31,19.37,47.13,0,110.6,13.27,19.12,199.4
"2009-08-26 01:43:30",1184176,3.786,239.5,0.497,0.072,18.32,107.4324,18.3,19.36,46.43,0,110.6,13.27,19.12,201.5
"2009-08-26 01:44:00",1184177,4.099,238,1.045,0.118,18.08,107.4324,18.3,19.36,45.74,0,110.6,13.28,19.12,200.0
"2009-08-26 01:44:30",1184178,4.07,235.9,1.261,0.08,18.09,107.4324,18.3,19.35,45.93,0,110.6,13.28,19.12,197.9
"2009-08-26 01:45:00",1184179,4.282,235.9,1.26,0.159,18.03,107.4324,18.3,19.35,46.46,0,110.6,13.28,19.12,197.9
"2009-08-26 01:45:30",1184180,4.269,237.1,1.321,0.061,17.97,107.4324,18.3,19.35,46.83,0,110.6,13.28,19.12,199.1
"2009-08-26 01:46:00",1184181,4.34,238.3,1.563,0.095,17.96,107.4336,18.31,19.35,47.04,0,110.6,13.28,19.12,200.3
"2009-08-26 01:46:30",1184182,4.528,235.2,2.518,0.111,17.96,107.4322,18.3,19.34,46.99,0,110.6,13.28,19.12,197.2
"2009-08-26 01:47:00",1184183,4.604,235.8,3.568,0.135,18.04,107.4248,18.28,19.32,46.5,0,110.6,13.28,19.10,197.8